GW5771 Weather Reports


Display with metric or nautical units.
time (UTC)temp
F
wind
direction
speed
MPH
gust
MPH
rain 1hr
in
rain 24hr
in
rain mn
in
humidity
%
barometer
mb
20260507083604 48 328 1.0 2.0 0.00 0.00 0.00 94 1008.6
20260507083105 48 325 0.0 2.0 0.00 0.00 0.00 94 1008.7
20260507082604 49 131 0.0 2.0 0.00 0.00 0.00 94 1008.6
20260507082103 49 335 0.0 2.0 0.00 0.00 0.00 94 1008.5
20260507081604 48 323 0.0 0.0 0.00 0.00 0.00 93 1008.6
20260507081104 48 320 1.0 2.0 0.00 0.00 0.00 94 1008.6
20260507080605 48 128 0.0 0.0 0.00 0.00 0.00 94 1008.6
20260507080103 49 128 0.0 0.0 0.00 0.00 0.00 94 1008.4
20260507075605 49 295 0.0 0.0 0.00 0.00 0.00 94 1008.3
20260507075104 49 295 0.0 0.0 0.00 0.00 0.00 94 1008.2
20260507074604 49 295 0.0 1.0 0.00 0.00 0.00 93 1008.5
20260507074105 49 261 1.0 3.0 0.00 0.00 0.00 94 1008.5
20260507073604 49 114 0.0 2.0 0.00 0.00 0.00 93 1008.6
20260507073104 49 85 0.0 1.0 0.00 0.00 0.00 92 1008.5
20260507072604 49 348 1.0 2.0 0.00 0.00 0.00 90 1008.4
20260507072104 50 322 0.0 3.0 0.00 0.00 0.00 89 1008.4
20260507071604 50 171 2.0 3.0 0.00 0.00 0.00 86 1008.3
20260507071105 50 344 1.0 5.0 0.00 0.00 0.00 85 1008.3
20260507070604 50 331 1.0 5.0 0.00 0.00 0.00 85 1008.5
20260507070105 50 333 1.0 3.0 0.00 0.00 0.00 85 1008.1
20260507065604 50 330 3.0 6.0 0.00 0.00 0.00 84 1008.1
20260507065106 50 329 2.0 3.0 0.00 0.00 0.00 84 1007.9
20260507064606 51 341 1.0 5.0 0.00 0.00 0.00 85 1007.8
20260507064106 51 330 1.0 3.0 0.00 0.00 0.00 84 1007.7
20260507063106 51 335 2.0 3.0 0.00 0.00 0.00 84 1007.7
20260507062606 51 3 1.0 3.0 0.00 0.00 0.00 85 1007.8
20260507062106 51 8 1.0 2.0 0.00 0.00 0.00 84 1007.7
20260507061607 51 1 1.0 2.0 0.00 0.00 0.00 85 1007.9
20260507061106 51 240 1.0 2.0 0.00 0.00 0.00 86 1008.0
20260507060607 51 133 2.0 3.0 0.00 0.00 0.00 86 1008.0
20260507060107 51 338 2.0 3.0 0.00 0.00 0.00 86 1008.1
20260507055606 51 311 2.0 3.0 0.00 0.00 0.00 86 1007.9
20260507055107 52 76 1.0 5.0 0.00 0.00 0.00 86 1008.0
20260507054607 52 345 2.0 5.0 0.00 0.00 0.00 86 1007.9
20260507054107 52 65 1.0 5.0 0.00 0.00 0.00 86 1008.0
20260507053607 52 330 1.0 5.0 0.00 0.00 0.00 86 1008.2
20260507053108 52 31 0.0 3.0 0.00 0.00 0.00 86 1008.1
20260507052606 52 340 0.0 3.0 0.00 0.00 0.00 86 1008.3
20260507052106 53 348 2.0 7.0 0.00 0.00 0.00 86 1008.3
20260507051606 53 1 1.0 7.0 0.00 0.00 0.00 86 1008.4
20260507051111 53 353 2.0 5.0 0.00 0.00 0.00 86 1008.4
20260507050106 54 349 3.0 6.0 0.00 0.00 0.00 88 1008.2
20260507045606 54 347 2.0 8.0 0.00 0.00 0.00 90 1008.2
20260507045106 54 313 1.0 6.0 0.00 0.00 0.00 92 1008.2
20260507044107 54 307 1.0 3.0 0.00 0.00 0.00 93 1007.9
20260507043606 54 9 1.0 3.0 0.00 0.00 0.00 93 1008.0
20260507043106 54 296 2.0 5.0 0.00 0.00 0.00 92 1008.0
20260507042606 55 335 1.0 5.0 0.00 0.00 0.00 92 1008.1
20260507041608 55 300 2.0 3.0 0.00 0.00 0.00 92 1007.9
20260507041106 55 286 1.0 5.0 0.00 0.00 0.00 92 1007.9
20260507040606 55 107 1.0 3.0 0.00 0.00 0.00 92 1007.9
20260507040108 55 126 1.0 7.0 0.00 0.00 0.00 92 1007.9
20260507035606 55 332 3.0 7.0 0.00 0.00 0.00 92 1007.9
20260507035106 55 215 3.0 8.0 0.00 0.00 0.00 92 1008.1
20260507034606 55 333 2.0 7.0 0.00 0.00 0.00 92 1008.1
20260507034107 56 285 3.0 8.0 0.00 0.00 0.00 92 1008.2
20260507033607 56 287 3.0 6.0 0.00 0.00 0.00 92 1008.1
20260507033106 56 187 0.0 8.0 0.00 0.00 0.00 92 1007.9
20260507032608 56 319 4.0 8.0 0.00 0.00 0.00 91 1007.8
20260507032107 57 339 2.0 7.0 0.00 0.00 0.00 90 1007.8
20260507031606 58 20 2.0 7.0 0.00 0.00 0.00 89 1007.8
20260507031107 59 310 2.0 5.0 0.00 0.00 0.00 89 1007.7
20260507030606 59 300 3.0 8.0 0.00 0.00 0.00 90 1007.4
20260507030108 59 331 1.0 5.0 0.00 0.00 0.00 91 1007.2
20260507025606 60 347 2.0 5.0 0.00 0.00 0.00 91 1007.1
20260507025106 60 228 1.0 7.0 0.00 0.00 0.00 90 1007.0
20260507024606 60 157 1.0 6.0 0.00 0.00 0.00 90 1007.0
20260507024106 60 354 2.0 7.0 0.00 0.00 0.00 91 1007.2
20260507023607 60 345 2.0 9.0 0.00 0.00 0.00 91 1007.1
20260507023107 60 209 2.0 7.0 0.00 0.00 0.00 92 1007.1
20260507022606 60 248 3.0 9.0 0.00 0.00 0.00 93 1006.9
20260507022106 60 196 2.0 9.0 0.00 0.00 0.00 94 1006.7
20260507021608 60 312 2.0 9.0 0.00 0.00 0.00 94 1006.7
20260507021107 60 124 1.0 3.0 0.00 0.00 0.00 94 1006.7
20260507020606 60 215 2.0 6.0 0.00 0.00 0.00 94 1006.8
20260507020107 60 171 2.0 5.0 0.00 0.00 0.00 94 1006.8
20260507015607 60 174 2.0 6.0 0.00 0.00 0.00 94 1006.7
20260507015107 60 186 3.0 10.0 0.00 0.00 0.00 94 1006.6
20260507014606 60 115 3.0 6.0 0.00 0.00 0.00 94 1006.6
20260507014106 60 184 2.0 6.0 0.00 0.00 0.00 94 1006.7
20260507013606 60 156 2.0 10.0 0.00 0.00 0.00 94 1006.7
20260507013106 60 179 2.0 7.0 0.00 0.00 0.00 95 1006.7
20260507012606 59 201 2.0 5.0 0.00 0.00 0.00 95 1006.7
20260507012106 59 233 2.0 6.0 0.00 0.00 0.00 95 1006.6
20260507011606 59 198 3.0 6.0 0.00 0.00 0.00 95 1006.5
20260507010607 59 190 3.0 9.0 0.00 0.00 0.00 95 1006.8
20260507010106 59 249 1.0 5.0 0.00 0.00 0.00 95 1006.8
20260507005607 59 168 1.0 8.0 0.00 0.00 0.00 95 1006.9
20260507004606 59 134 3.0 7.0 0.00 0.00 0.00 95 1006.8
20260507004106 59 171 2.0 8.0 0.00 0.00 0.00 95 1006.9
20260507003606 59 348 3.0 9.0 0.00 0.00 0.00 96 1006.8
20260507003106 59 163 2.0 5.0 0.00 0.00 0.00 96 1006.8
20260507001606 59 184 2.0 5.0 0.00 0.00 0.00 96 1006.8
20260507001106 59 197 2.0 7.0 0.00 0.00 0.00 95 1006.8
20260507000606 59 188 2.0 6.0 0.00 0.00 0.00 96 1006.7
20260506235606 59 182 2.0 6.0 0.00 0.00 0.00 95 1006.7
20260506234606 58 206 3.0 8.0 0.00 0.00 0.00 96 1006.5
20260506234106 58 198 5.0 8.0 0.00 0.00 0.00 96 1006.5
20260506233106 59 216 2.0 5.0 0.00 0.00 0.00 96 1006.6
20260506232606 59 183 1.0 13.0 0.00 0.00 0.00 96 1006.5
20260506232107 59 154 3.0 8.0 0.00 0.00 0.00 96 1006.5
20260506231606 59 199 3.0 8.0 0.00 0.00 0.00 96 1006.5
20260506231106 59 184 1.0 12.0 0.00 0.00 0.00 96 1006.5
20260506230607 58 179 2.0 12.0 0.00 0.00 0.00 96 1006.4
20260506230106 58 176 1.0 5.0 0.00 0.00 0.00 96 1006.4
20260506225605 58 161 2.0 6.0 0.00 0.00 0.00 96 1006.4
20260506225106 58 178 2.0 8.0 0.00 0.00 0.00 96 1006.5
20260506223606 59 176 2.0 6.0 0.00 0.00 0.00 96 1006.5
20260506223107 59 174 2.0 9.0 0.00 0.00 0.00 96 1006.6
20260506222605 59 192 3.0 7.0 0.00 0.00 0.00 95 1006.6
20260506222105 59 173 2.0 7.0 0.00 0.00 0.00 95 1006.8
20260506221606 59 204 3.0 6.0 0.00 0.00 0.00 95 1006.8
20260506221106 59 187 3.0 6.0 0.00 0.00 0.00 96 1006.7
20260506220606 59 181 2.0 6.0 0.00 0.00 0.00 96 1006.7
20260506220105 59 190 2.0 6.0 0.00 0.00 0.00 96 1006.8
20260506215605 59 167 1.0 7.0 0.00 0.00 0.00 96 1006.9
20260506214607 59 186 4.0 8.0 0.00 0.00 0.00 96 1006.9
20260506214106 59 175 1.0 7.0 0.00 0.00 0.00 95 1006.9
20260506213606 59 188 2.0 5.0 0.00 0.00 0.00 95 1006.9
20260506213106 59 185 3.0 6.0 0.00 0.00 0.00 95 1007.0
20260506212606 59 132 2.0 7.0 0.00 0.00 0.00 95 1007.0
20260506212105 59 301 2.0 6.0 0.00 0.00 0.00 95 1007.1
20260506211606 59 201 2.0 6.0 0.00 0.00 0.00 94 1007.1
20260506211105 59 255 3.0 6.0 0.00 0.00 0.00 94 1007.2
20260506210606 59 185 3.0 8.0 0.00 0.00 0.00 94 1007.2
20260506210106 59 190 2.0 7.0 0.00 0.00 0.00 94 1007.2
20260506205106 59 209 1.0 7.0 0.00 0.00 0.00 94 1007.4
20260506204606 59 186 3.0 10.0 0.00 0.00 0.00 93 1007.4
20260506204106 59 196 5.0 8.0 0.00 0.00 0.00 94 1007.4
20260506203106 59 211 2.0 7.0 0.00 0.00 0.00 94 1007.5
20260506202605 59 253 2.0 8.0 0.00 0.00 0.00 94 1007.5
20260506202105 59 165 3.0 7.0 0.00 0.00 0.00 94 1007.6
20260506201605 59 132 4.0 13.0 0.00 0.00 0.00 94 1007.6
20260506201106 59 214 2.0 8.0 0.00 0.00 0.00 94 1007.6
20260506200607 59 194 3.0 8.0 0.00 0.00 0.00 94 1007.6
20260506200106 59 212 1.0 6.0 0.00 0.00 0.00 94 1007.6
20260506195105 59 168 4.0 6.0 0.00 0.00 0.00 94 1007.8
20260506194606 59 201 2.0 5.0 0.00 0.00 0.00 94 1007.8
20260506194106 59 219 3.0 8.0 0.00 0.00 0.00 93 1007.8
20260506193106 60 190 4.0 7.0 0.00 0.00 0.00 93 1007.9
20260506192606 60 239 3.0 7.0 0.00 0.00 0.00 93 1007.9
20260506192106 60 210 3.0 6.0 0.00 0.00 0.00 93 1008.0
20260506191606 60 211 2.0 8.0 0.00 0.00 0.00 93 1007.9
20260506190607 60 175 3.0 8.0 0.00 0.00 0.00 92 1007.9
20260506190105 60 224 3.0 8.0 0.00 0.00 0.00 92 1008.1
20260506185606 61 180 2.0 7.0 0.00 0.00 0.00 93 1007.9
20260506185106 61 181 2.0 5.0 0.00 0.00 0.00 93 1007.8
20260506184607 61 195 3.0 7.0 0.00 0.00 0.00 92 1007.9
20260506184106 61 190 2.0 6.0 0.00 0.00 0.00 92 1008.0
20260506183605 62 187 2.0 7.0 0.00 0.00 0.00 90 1008.1
20260506183105 62 197 3.0 7.0 0.00 0.00 0.00 88 1008.3
20260506182605 62 165 3.0 6.0 0.00 0.00 0.00 87 1008.4
20260506182105 63 186 2.0 8.0 0.00 0.00 0.00 87 1008.4
20260506181606 63 184 3.0 8.0 0.00 0.00 0.00 86 1008.5
20260506181105 64 221 3.0 8.0 0.00 0.00 0.00 84 1008.7
20260506180605 64 244 3.0 6.0 0.00 0.00 0.00 83 1008.6
20260506180107 64 212 2.0 5.0 0.00 0.00 0.00 81 1008.6
20260506175605 65 241 3.0 7.0 0.00 0.00 0.00 79 1008.7
20260506175105 66 219 3.0 7.0 0.00 0.00 0.00 77 1008.9
20260506174105 67 185 3.0 10.0 0.00 0.00 0.00 73 1009.0
20260506173606 68 230 4.0 9.0 0.00 0.00 0.00 71 1009.0
20260506172606 69 196 5.0 15.0 0.00 0.00 0.00 64 1008.5
20260506172106 69 177 5.0 13.0 0.00 0.00 0.00 64 1008.6
20260506171605 70 208 3.0 12.0 0.00 0.00 0.00 63 1008.3
20260506171106 70 201 5.0 13.0 0.00 0.00 0.00 62 1008.3
20260506170605 70 214 4.0 14.0 0.00 0.00 0.00 62 1008.2
20260506170106 71 204 3.0 8.0 0.00 0.00 0.00 60 1008.2
20260506165606 71 227 2.0 6.0 0.00 0.00 0.00 61 1008.1
20260506165107 71 254 2.0 12.0 0.00 0.00 0.00 61 1008.1
20260506164105 71 220 4.0 10.0 0.00 0.00 0.00 60 1008.1
20260506163606 71 262 3.0 12.0 0.00 0.00 0.00 59 1007.9
20260506163105 71 205 3.0 10.0 0.00 0.00 0.00 60 1008.3
20260506162606 71 185 2.0 9.0 0.00 0.00 0.00 61 1008.1
20260506162106 70 218 3.0 8.0 0.00 0.00 0.00 60 1008.4
20260506161106 70 211 3.0 9.0 0.00 0.00 0.00 60 1008.5
20260506160606 70 246 6.0 14.0 0.00 0.00 0.00 60 1008.8
20260506160105 70 234 3.0 10.0 0.00 0.00 0.00 62 1008.7
20260506155606 70 183 3.0 12.0 0.00 0.00 0.00 62 1008.8
20260506155107 70 223 2.0 10.0 0.00 0.00 0.00 62 1008.9
20260506154106 69 176 3.0 7.0 0.00 0.00 0.00 63 1008.8
20260506153607 69 200 2.0 7.0 0.00 0.00 0.00 64 1008.9
20260506153106 69 208 3.0 8.0 0.00 0.00 0.00 64 1009.0
20260506152605 69 227 5.0 10.0 0.00 0.00 0.00 64 1009.1
20260506152105 69 222 4.0 8.0 0.00 0.00 0.00 64 1009.3
20260506151605 69 205 2.0 9.0 0.00 0.00 0.00 64 1009.3
20260506151105 69 197 3.0 10.0 0.00 0.00 0.00 64 1009.3
20260506150605 69 230 3.0 8.0 0.00 0.00 0.00 64 1009.4
20260506150106 69 214 5.0 9.0 0.00 0.00 0.00 64 1009.4
20260506145606 69 211 2.0 7.0 0.00 0.00 0.00 65 1009.3
20260506145105 69 210 4.0 9.0 0.00 0.00 0.00 65 1009.4
20260506144605 69 207 3.0 9.0 0.00 0.00 0.00 66 1009.5
20260506144106 68 201 4.0 9.0 0.00 0.00 0.00 67 1009.4
20260506143605 68 211 5.0 9.0 0.00 0.00 0.00 67 1009.4
20260506143105 68 210 3.0 12.0 0.00 0.00 0.00 67 1009.5
20260506142605 67 200 2.0 3.0 0.00 0.00 0.00 70 1009.5
20260506142106 67 191 3.0 8.0 0.00 0.00 0.00 69 1009.4
20260506141605 67 228 5.0 9.0 0.00 0.00 0.00 70 1009.4
20260506141105 66 212 4.0 8.0 0.00 0.00 0.00 71 1009.4
20260506140606 66 202 2.0 7.0 0.00 0.00 0.00 72 1009.4
20260506135605 66 237 3.0 8.0 0.00 0.00 0.00 72 1009.3
20260506135106 66 188 2.0 9.0 0.00 0.00 0.00 72 1009.3
20260506134105 65 184 3.0 12.0 0.00 0.00 0.00 74 1009.4
20260506133607 65 213 2.0 9.0 0.00 0.00 0.00 74 1009.5
20260506133106 65 195 2.0 9.0 0.00 0.00 0.00 75 1009.3
20260506132605 65 175 3.0 10.0 0.00 0.00 0.00 75 1009.4
20260506132106 64 215 3.0 7.0 0.00 0.00 0.00 75 1009.4
20260506130606 63 200 3.0 7.0 0.00 0.00 0.00 78 1009.9
20260506125605 63 197 3.0 6.0 0.00 0.00 0.00 79 1010.3
20260506125106 63 189 4.0 9.0 0.00 0.00 0.00 79 1010.2
20260506124605 63 219 2.0 9.0 0.00 0.00 0.00 79 1010.2
20260506124106 62 182 3.0 7.0 0.00 0.00 0.00 79 1010.0
20260506123605 62 247 2.0 7.0 0.00 0.00 0.00 79 1010.0
20260506123105 62 232 1.0 8.0 0.00 0.00 0.00 80 1010.0
20260506122606 62 217 2.0 8.0 0.00 0.00 0.00 80 1009.8
20260506121605 61 192 2.0 9.0 0.00 0.00 0.00 82 1010.0
20260506121105 61 189 3.0 9.0 0.00 0.00 0.00 82 1010.3
20260506120606 61 245 2.0 7.0 0.00 0.00 0.00 82 1010.3
20260506120106 60 163 2.0 8.0 0.00 0.00 0.00 83 1010.1
20260506115605 60 223 4.0 9.0 0.00 0.00 0.00 83 1010.0
20260506115105 60 220 3.0 8.0 0.00 0.00 0.00 83 1010.1
20260506114106 59 202 3.0 6.0 0.00 0.00 0.00 84 1010.1
20260506113606 59 166 2.0 5.0 0.00 0.00 0.00 85 1010.4
20260506113106 59 252 1.0 5.0 0.00 0.00 0.00 86 1010.5
20260506112105 58 163 2.0 5.0 0.00 0.00 0.00 86 1010.6
20260506111605 58 191 2.0 5.0 0.00 0.00 0.00 86 1010.7
20260506111105 58 142 1.0 3.0 0.00 0.00 0.00 86 1011.0
20260506110605 58 233 1.0 7.0 0.00 0.00 0.00 86 1010.9
20260506105605 58 224 2.0 6.0 0.00 0.00 0.00 86 1010.6
20260506104605 58 236 1.0 5.0 0.00 0.00 0.00 87 1010.7
20260506104105 58 226 2.0 6.0 0.00 0.00 0.00 87 1010.5
20260506103605 58 223 2.0 6.0 0.00 0.00 0.00 87 1010.6
20260506103105 58 190 2.0 5.0 0.00 0.00 0.00 87 1010.6
20260506102605 58 169 3.0 6.0 0.00 0.00 0.00 87 1010.5
20260506102106 58 201 1.0 5.0 0.00 0.00 0.00 87 1010.5
20260506101605 58 176 2.0 5.0 0.00 0.00 0.00 87 1010.5
20260506101106 58 214 2.0 5.0 0.00 0.00 0.00 87 1010.6
20260506100605 58 189 1.0 3.0 0.00 0.00 0.00 87 1010.7
20260506100105 58 205 1.0 3.0 0.00 0.00 0.00 86 1010.7
20260506095105 58 204 2.0 6.0 0.00 0.00 0.00 86 1010.6
20260506094606 58 213 3.0 6.0 0.00 0.00 0.00 86 1010.6
20260506094106 58 232 3.0 6.0 0.00 0.00 0.00 86 1010.6
20260506093606 58 188 2.0 6.0 0.00 0.00 0.00 86 1010.7
20260506093106 58 260 1.0 6.0 0.00 0.00 0.00 86 1010.6
20260506092606 58 201 1.0 3.0 0.00 0.00 0.00 85 1010.6
20260506091105 58 192 2.0 6.0 0.00 0.00 0.00 85 1010.6
20260506090605 58 201 2.0 6.0 0.00 0.00 0.00 84 1010.6
20260506090105 58 214 2.0 6.0 0.00 0.00 0.00 84 1010.7
20260506085604 58 255 2.0 8.0 0.00 0.00 0.00 84 1010.6
20260506085105 58 197 3.0 7.0 0.00 0.00 0.00 84 1010.5
20260506084606 58 188 3.0 8.0 0.00 0.00 0.00 84 1010.5
20260506084105 58 185 2.0 7.0 0.00 0.00 0.00 83 1010.6